Location: Huntsville
(41.2590°N, 111.7678°W)
Time: 08:39:10
(UTC+00:00)

Altair - Visible Passes

Search period start: 25 September 2022 00:00
Search period end: 05 October 2022 00:00
Orbit: 1501 x 1682 km, 47.2° (Epoch: 24 September)

Date Brightness Start Highest point End Pass type
(mag) Time Alt. Az. Time Alt. Az. Time Alt. Az.
25 Sep 9.7 11:42:43 10° SSE 11:48:08 16° ESE 11:53:36 10° E visible
26 Sep 9.7 11:18:33 10° SSE 11:23:06 14° ESE 11:27:42 10° E visible
27 Sep 9.7 10:54:41 10° SE 10:58:04 12° ESE 11:01:29 10° E visible
27 Sep 8.5 12:51:43 10° SSW 13:00:58 50° SE 13:10:31 10° ENE visible
28 Sep 9.8 10:31:47 10° SE 10:33:03 10° ESE 10:34:19 10° ESE visible
28 Sep 8.5 12:26:46 10° SSW 12:35:50 46° SE 12:45:12 10° ENE visible
29 Sep 8.6 12:01:50 10° SSW 12:10:43 43° SE 12:19:53 10° ENE visible
30 Sep 8.6 11:36:55 10° SSW 11:45:36 39° SE 11:54:33 10° ENE visible
01 Oct 8.7 11:12:23 11° SSW 11:20:30 36° SE 11:29:12 10° ENE visible
02 Oct 8.7 10:49:14 17° S 10:55:24 33° SE 11:03:50 10° ENE visible
02 Oct 7.7 12:49:34 10° WSW 12:59:20 85° SSE 13:09:28 10° ENE visible
03 Oct 8.8 10:26:01 21° SSE 10:30:20 30° SE 10:38:26 10° ENE visible
03 Oct 7.7 12:24:25 10° SW 12:34:07 81° SSE 12:44:12 10° ENE visible
04 Oct 8.8 10:02:43 24° SSE 10:05:15 27° SE 10:12:59 10° ENE visible
04 Oct 7.7 12:00:46 16° SW 12:08:55 77° SSE 12:18:57 10° ENE visible
